{"data":{"norad_id":62849,"epoch":"2026-09-21T18:40:46.067808Z","epoch_age_seconds":57632,"freshness":"FRESH","line1":"1 62849U 25019W   26264.77831097  .00016951  00000+0  62396-3 0  9998","line2":"2 62849  42.9993  61.2699 0001866 267.2178  92.8460 15.27586067 92247","mean_motion":15.27586067,"eccentricity":0.0001866,"inclination_deg":42.9993,"raan_deg":61.2699,"arg_perigee_deg":267.2178,"mean_anomaly_deg":92.846,"bstar":0.00062396,"rev_number":9224,"period_min":94.266374321415,"perigee_km":481.75063538358,"apogee_km":484.3112232548,"semimajor_km":6861.1679293192,"source":"CELESTRAK","updated_at":"2026-09-22T09:00:49.675261Z"}}